DELTA 1 DEB, 7057

Orbit data source: Space-Track

DELTA 1 DEB, 7057 is space debris in SSO originally from a launch on Tue, 06 Nov 1973 UTC launched from the Air Force Western Test Range (AFWTR). Debris objects in space refer to the collection of defunct objects orbiting the Earth. Examples of debris include non-operational satellites, rocket bodies, and fragments generated from explosions, collisions, or faulty payload assembly.

Loading next visibility...
Identifier
7057, 1973-086AZ
Orbit
SSO
Country
Flag of USUS
Related business
Manufacturer
Unknown
Mission
Spacecraft
Bus & Motor
Unknown
Mass
Unknown
Launch date (UTC)
1973-11-06 (52 years ago)
Launch vehicle
Unknown
Launch site
Air Force Western Test Range (AFWTR)
Object type
Payload
Rocket body
Debris
Shape & HBR
Unknown shape, 0.5 m
Radar Cross Section
Medium (>0.1 m² and <1 m²)

Expand to show TLE details & history
Last TLE update: 7 hours ago

TLE from 7 hours ago
0 DELTA 1 DEB
1 07057U 73086AZ  25292.27880262 -.00000024  00000-0  17700-3 0  9993
2 07057 102.4457 308.3556 0034509  34.4696 336.7488 12.33039976338216
Epoch: 2025-10-19T06:41Z
TLE epoch observation values (Epoch: 2025-10-19T06:41:28.546Z)
Latitude
10.75539°
Longitude
177.59795°
Altitude
1,512.94 km
Speed
7.121 km/s
True Right ascension
20h 23m 51s
True Declination
10° 41' 55"
Sunlit
Object was in daylight at epoch
Visualization orbit readout
Latitude
Unknown
Longitude
Unknown
Altitude
Unknown
Speed
Unknown
Apparent Right ascension
Unknown
Apparent Declination
Unknown
Sunlit
N/A
Visualization observer readout
Local Sidereal Time
08:24:13
Azimuth
Unknown
Elevation
Unknown
Doppler factor
Unknown
Orbital elements
Apogee altitude
1,561.16 km
Perigee altitude
1,506.553 km
Semi-major axis
7,911.994 km
Eccentricity
0.00345
Inclination
102.4457°
RAAN
308.3556°
Arg. of periapsis
34.4696°
True anomaly
336.59207°
Mean anomaly
336.7488°
Eccentric anomaly
336.6705°
Mean motion
3.084 °/min
Orbital period
116.73 mins
BSTAR
0.000177
Loading maneuver chart data...
Computing Atmospheric mass density...
Loading historical data...
Loading historical data...
Loading historical data...
Loading historical data...
Loading historical data...
Loading historical data...
Loading historical data...

Documentation

Showing up to 5 results
|